DW0805 Ramloese DK current weather conditions

sailwx.info

Wind from 140 at 6 knots gusting 14

Air temperature 21.1° C
Dewpoint 13.5° C

Last reported at 2015-Jul-02 06:45 UTC.
Time now 2015-Jul-02 08:03 UTC

Location: N 56°01' E 012°05'.
View on Google Maps.

See reports from other nearby stations

  
Tides and Currents Weather Stations Pressure Air Temp Water Temp Dewpoint Dewpoint Depression Visibility Wind Speed Wind Dir Waves Ship Positions
date/time (UTC)wind fromknots sea level pressurealtimeterstation pressurevisibilityair tempwater tempwave heightnotes
2015-Jul-02 06:45 140 6 gusting 14 21.1
2015-Jul-02 06:35 151 5 gusting 8 21.1
2015-Jul-02 06:25 148 4 gusting 10 20.6
2015-Jul-02 06:15 136 5 gusting 10 20.0
2015-Jul-02 06:05 140 4 gusting 7 20.0
2015-Jul-02 05:55 140 4 gusting 11 19.4
2015-Jul-02 05:45 136 5 gusting 10 19.4
2015-Jul-02 05:35 130 6 gusting 12 18.9
2015-Jul-02 05:25 141 5 gusting 7 18.9
2015-Jul-02 05:15 135 2 gusting 6 18.3
2015-Jul-02 05:05 134 4 gusting 7 17.8
2015-Jul-02 04:55 135 5 gusting 10 17.2
2015-Jul-02 04:45 134 5 gusting 8 17.2
2015-Jul-02 04:35 127 5 gusting 8 16.7
2015-Jul-02 04:25 164 6 gusting 10 16.1
2015-Jul-02 04:15 136 4 gusting 8 16.1
2015-Jul-02 04:05 141 6 gusting 8 15.6
2015-Jul-02 03:55 138 2 gusting 6 15.0
2015-Jul-02 03:45 130 3 gusting 6 15.0
2015-Jul-02 03:35 128 2 gusting 6 14.4
2015-Jul-02 03:25 125 5 gusting 7 13.9
2015-Jul-02 03:15 122 5 gusting 7 13.9
2015-Jul-02 03:05 127 5 gusting 10 13.9
2015-Jul-02 02:55 122 5 gusting 10 13.9
2015-Jul-02 02:45 122 6 gusting 8 13.9
2015-Jul-02 02:35 125 5 gusting 8 13.9
2015-Jul-02 02:25 119 5 gusting 10 13.9
2015-Jul-02 02:15 118 5 gusting 7 13.9
2015-Jul-02 02:05 120 6 gusting 11 14.4
2015-Jul-02 01:55 122 6 gusting 8 14.4
2015-Jul-02 01:45 116 5 gusting 8 14.4
2015-Jul-02 01:35 149 4 gusting 6 13.9
2015-Jul-02 01:25 153 4 gusting 5 13.9
2015-Jul-02 01:15 155 4 gusting 5 13.9
2015-Jul-02 01:05 155 2 gusting 5 14.4
2015-Jul-02 00:55 155 2 gusting 5 14.4
2015-Jul-02 00:45 156 2 gusting 5 14.4
2015-Jul-02 00:35 157 2 gusting 5 14.4
2015-Jul-02 00:25 157 3 gusting 5 14.4
2015-Jul-02 00:15 157 2 gusting 5 14.4
2015-Jul-02 00:05 159 3 gusting 5 14.4
2015-Jul-01 23:55 169 2 gusting 5 14.4
2015-Jul-01 23:45 178 2 gusting 5 15.0
2015-Jul-01 23:35 178 2 gusting 5 15.0
2015-Jul-01 23:25 178 1 gusting 4 15.0
2015-Jul-01 23:15 179 2 gusting 4 15.0
2015-Jul-01 23:05 178 2 gusting 4 15.6
2015-Jul-01 22:55 178 1 gusting 4 15.6
2015-Jul-01 22:45 179 2 gusting 4 15.6
2015-Jul-01 22:35 178 1 gusting 2 15.6
2015-Jul-01 22:25 178 1 gusting 4 16.1
2015-Jul-01 22:15 178 1 gusting 5 16.1
2015-Jul-01 22:05 183 1 gusting 5 16.7
2015-Jul-01 21:55 183 1 gusting 4 16.7
2015-Jul-01 21:45 183 1 gusting 2 17.2
2015-Jul-01 21:35 183 17.2
2015-Jul-01 21:25 183 0 gusting 5 17.2
2015-Jul-01 21:15 183 3 gusting 5 17.2
2015-Jul-01 21:05 183 0 gusting 5 17.8
2015-Jul-01 20:55 183 2 gusting 5 17.8
2015-Jul-01 20:45 184 4 gusting 5 18.3
2015-Jul-01 20:35 190 2 gusting 6 18.3
2015-Jul-01 20:25 202 0 gusting 4 18.3
2015-Jul-01 20:15 202 1 gusting 4 18.3
2015-Jul-01 20:05 202 0 gusting 4 18.9
2015-Jul-01 19:55 202 1 gusting 5 18.9
2015-Jul-01 19:45 199 2 gusting 5 19.4
2015-Jul-01 19:35 192 0 gusting 4 19.4
2015-Jul-01 19:25 192 0 gusting 2 20.0
2015-Jul-01 19:15 193 0 gusting 2 20.6
2015-Jul-01 19:05 192 21.1
2015-Jul-01 18:55 192 1 gusting 5 21.7
2015-Jul-01 18:35 207 1 gusting 5 22.2
2015-Jul-01 18:25 211 2 gusting 6 22.8
2015-Jul-01 18:15 195 2 gusting 6 22.8
2015-Jul-01 18:05 176 5 gusting 6 22.2
2015-Jul-01 17:55 176 6 gusting 7 22.2
2015-Jul-01 17:45 177 4 gusting 6 22.2
2015-Jul-01 17:35 175 5 gusting 6 22.8
2015-Jul-01 17:25 184 5 gusting 7 22.8
2015-Jul-01 17:15 176 4 gusting 6 22.8
2015-Jul-01 17:05 073 2 gusting 5 22.8
2015-Jul-01 16:55 069 1 gusting 4 22.8
2015-Jul-01 16:45 069 0 gusting 5 22.8
2015-Jul-01 16:35 069 1 gusting 4 22.8
2015-Jul-01 16:25 069 2 gusting 6 22.8
2015-Jul-01 16:15 074 2 gusting 6 22.8
2015-Jul-01 16:05 064 2 gusting 6 22.8
2015-Jul-01 15:55 042 1 gusting 6 22.8
2015-Jul-01 15:45 042 2 gusting 7 22.8
2015-Jul-01 15:35 048 5 gusting 8 23.3
2015-Jul-01 15:25 056 2 gusting 7 23.3
2015-Jul-01 15:15 039 3 gusting 7 23.3
2015-Jul-01 15:05 062 3 gusting 11 23.3
2015-Jul-01 14:55 032 4 gusting 7 22.8
2015-Jul-01 14:45 060 3 gusting 7 22.8
2015-Jul-01 14:35 025 4 gusting 7 22.8
2015-Jul-01 14:25 053 0 gusting 6 23.3
2015-Jul-01 14:15 075 4 gusting 6 23.3
2015-Jul-01 14:05 069 4 gusting 7 22.8
2015-Jul-01 13:55 067 4 gusting 6 23.3
2015-Jul-01 13:45 070 2 gusting 6 23.3
2015-Jul-01 13:35 064 4 gusting 6 23.9
2015-Jul-01 13:25 049 2 gusting 5 23.9
2015-Jul-01 13:15 044 1 gusting 5 23.9
2015-Jul-01 13:05 010 2 gusting 5 25.0
2015-Jul-01 12:55 041 1 gusting 5 24.4
2015-Jul-01 12:45 063 2 gusting 5 23.9
2015-Jul-01 12:35 026 1 gusting 5 24.4
2015-Jul-01 12:25 033 0 gusting 5 24.4
2015-Jul-01 12:15 016 2 gusting 5 25.0
2015-Jul-01 12:05 24.4
2015-Jul-01 11:55 006 2 gusting 6 23.9
2015-Jul-01 11:45 049 2 gusting 7 23.9
2015-Jul-01 11:35 048 1 gusting 7 23.3
2015-Jul-01 11:25 007 2 gusting 6 24.4
2015-Jul-01 11:15 056 3 gusting 6 23.3
2015-Jul-01 11:05 346 23.9
2015-Jul-01 10:55 004 1 gusting 5 23.9
2015-Jul-01 10:45 315 2 gusting 6 23.9
2015-Jul-01 10:35 174 23.9
2015-Jul-01 10:25 173 1 gusting 4 23.3
2015-Jul-01 10:15 173 1 gusting 5 22.8
2015-Jul-01 10:05 173 2 gusting 5 22.8
2015-Jul-01 09:55 173 1 gusting 4 23.3
2015-Jul-01 09:45 173 0 gusting 2 23.3
2015-Jul-01 09:35 173 1 gusting 4 22.2
2015-Jul-01 09:25 173 1 gusting 4 22.2
2015-Jul-01 09:15 173 1 gusting 4 22.2
2015-Jul-01 09:05 173 3 gusting 5 21.1
2015-Jul-01 08:55 173 2 gusting 5 21.7
2015-Jul-01 08:45 173 2 gusting 5 20.6
2015-Jul-01 08:35 173 3 gusting 5 20.6
2015-Jul-01 08:25 173 2 gusting 5 20.0
2015-Jul-01 08:15 173 2 gusting 5 20.6
2015-Jul-01 08:05 173 2 gusting 5 20.0
2015-Jul-01 07:55 171 4 gusting 5 20.6
2015-Jul-01 07:45 085 1 gusting 5 21.1
2015-Jul-01 07:35 085 2 gusting 5 21.1
2015-Jul-01 07:25 094 1 gusting 4 22.2
2015-Jul-01 07:15 095 1 gusting 5 21.1
2015-Jul-01 07:05 096 1 gusting 5 20.0
2015-Jul-01 06:55 096 2 gusting 6 20.0
2015-Jul-01 06:45 077 1 gusting 6 19.4
2015-Jul-01 06:35 074 1 gusting 6 20.0
2015-Jul-01 06:25 077 3 gusting 6 20.0
2015-Jul-01 06:15 063 0 gusting 5 20.0
2015-Jul-01 06:05 063 0 gusting 4 20.0
2015-Jul-01 05:55 067 1 gusting 4 19.4
2015-Jul-01 05:45 069 3 gusting 5 19.4
2015-Jul-01 05:35 057 1 gusting 4 20.0
2015-Jul-01 05:25 026 0 gusting 2 20.0
2015-Jul-01 05:15 016 0 gusting 1 20.0
2015-Jul-01 05:05 016 18.9
2015-Jul-01 04:55 016 17.8
2015-Jul-01 04:45 015 16.1
2015-Jul-01 04:35 340 15.6
2015-Jul-01 04:25 340 14.4
2015-Jul-01 04:15 340 13.9
2015-Jul-01 04:05 340 13.3
2015-Jul-01 03:55 340 12.2
2015-Jul-01 03:45 340 12.2
2015-Jul-01 03:35 340 11.7
2015-Jul-01 03:25 340 11.1
2015-Jul-01 03:15 340 11.1
2015-Jul-01 03:05 340 11.1
2015-Jul-01 02:55 340 10.6
2015-Jul-01 02:45 342 1 gusting 2 10.6
2015-Jul-01 02:35 340 10.6
2015-Jul-01 02:25 340 10.6
2015-Jul-01 02:15 340 0 gusting 2 10.6
2015-Jul-01 02:05 340 0 gusting 1 10.6
2015-Jul-01 01:55 340 0 gusting 1 10.6
2015-Jul-01 01:45 340 0 gusting 1 10.6
2015-Jul-01 01:35 340 10.6
2015-Jul-01 01:25 340 0 gusting 1 10.6
2015-Jul-01 01:15 340 10.6
2015-Jul-01 01:05 340 10.6
2015-Jul-01 00:55 340 10.6
2015-Jul-01 00:45 340 11.1
2015-Jul-01 00:35 340 11.1
2015-Jul-01 00:25 340 11.1
2015-Jul-01 00:15 340 11.7
2015-Jul-01 00:05 340 11.1
2015-Jun-30 23:55 340 11.1
2015-Jun-30 23:45 340 11.1
2015-Jun-30 23:35 340 11.1
2015-Jun-30 23:25 340 0 gusting 1 11.1
2015-Jun-30 23:15 340 11.7
2015-Jun-30 23:05 340 11.7
2015-Jun-30 22:55 340 11.7
2015-Jun-30 22:45 340 11.7
2015-Jun-30 22:35 340 11.7
2015-Jun-30 22:25 340 0 gusting 1 11.7
2015-Jun-30 22:15 340 12.2
2015-Jun-30 22:05 340 12.2
2015-Jun-30 21:55 340 12.2
2015-Jun-30 21:45 340 12.2
2015-Jun-30 21:35 340 12.8
2015-Jun-30 21:25 340 12.8
2015-Jun-30 21:15 340 12.8
2015-Jun-30 21:05 340 13.3
2015-Jun-30 20:55 340 13.3
2015-Jun-30 20:45 340 13.9
2015-Jun-30 20:35 340 13.9
2015-Jun-30 20:25 340 14.4
2015-Jun-30 20:15 340 14.4
2015-Jun-30 20:05 340 15.6
2015-Jun-30 19:55 340 16.1
2015-Jun-30 19:45 340 16.7
2015-Jun-30 19:35 340 16.7
2015-Jun-30 19:25 340 17.2
2015-Jun-30 19:15 340 17.2
2015-Jun-30 19:05 340 17.2
2015-Jun-30 18:55 340 17.8
2015-Jun-30 18:35 340 18.3
2015-Jun-30 18:25 342 2 gusting 6 18.9
2015-Jun-30 18:15 349 1 gusting 5 19.4
2015-Jun-30 18:05 346 2 gusting 6 20.0
2015-Jun-30 17:55 340 3 gusting 5 20.0
2015-Jun-30 17:45 314 2 gusting 6 20.6
2015-Jun-30 17:35 003 3 gusting 7 20.0
2015-Jun-30 17:25 010 2 gusting 7 20.0
2015-Jun-30 17:15 348 4 gusting 10 20.6
2015-Jun-30 17:05 331 3 gusting 6 20.6
2015-Jun-30 16:55 340 3 gusting 6 21.1
2015-Jun-30 16:45 354 4 gusting 6 20.6
2015-Jun-30 16:35 008 4 gusting 7 20.6
2015-Jun-30 16:25 348 4 gusting 7 20.6
2015-Jun-30 16:15 343 6 gusting 11 20.6
2015-Jun-30 16:05 034 2 gusting 11 20.6
2015-Jun-30 15:55 355 4 gusting 8 20.6
2015-Jun-30 15:45 330 5 gusting 13 20.6
2015-Jun-30 15:35 350 3 gusting 10 21.1
2015-Jun-30 15:25 340 2 gusting 8 21.1
2015-Jun-30 15:15 346 2 gusting 10 21.1
2015-Jun-30 15:05 004 5 gusting 12 20.6
2015-Jun-30 14:55 340 5 gusting 11 20.6
2015-Jun-30 14:45 326 5 gusting 10 21.1
2015-Jun-30 14:35 315 4 gusting 13 21.1
2015-Jun-30 14:25 305 4 gusting 7 21.1
2015-Jun-30 14:15 324 5 gusting 10 21.1
2015-Jun-30 14:05 319 4 gusting 10 20.6
2015-Jun-30 13:55 319 6 gusting 10 21.1
2015-Jun-30 13:45 335 5 gusting 13 21.1
2015-Jun-30 13:35 340 6 gusting 13 20.6
2015-Jun-30 13:25 338 6 gusting 10 20.6
2015-Jun-30 13:15 327 5 gusting 12 20.6
2015-Jun-30 13:05 326 5 gusting 12 20.6
2015-Jun-30 12:55 312 6 gusting 10 20.6
2015-Jun-30 12:45 300 6 gusting 12 20.6
2015-Jun-30 12:35 275 6 gusting 12 20.0
2015-Jun-30 12:25 294 7 gusting 13 20.0
2015-Jun-30 12:15 294 6 gusting 12 20.6
2015-Jun-30 12:05 298 5 gusting 11 20.6
2015-Jun-30 11:55 283 5 gusting 11 20.6
2015-Jun-30 11:45 314 4 gusting 8 20.0
2015-Jun-30 11:35 291 6 gusting 10 19.4
2015-Jun-30 11:25 283 6 gusting 10 20.0
2015-Jun-30 11:15 335 6 gusting 10 19.4
2015-Jun-30 11:05 304 5 gusting 11 18.9
2015-Jun-30 10:55 305 5 gusting 8 18.9
2015-Jun-30 10:45 319 7 gusting 12 18.3
2015-Jun-30 10:35 307 5 gusting 13 18.3
2015-Jun-30 10:25 286 6 gusting 13 17.8
2015-Jun-30 10:15 307 6 gusting 12 17.8
2015-Jun-30 10:05 340 6 gusting 11 17.8
2015-Jun-30 09:55 313 7 gusting 11 17.8
2015-Jun-30 09:45 335 6 gusting 12 17.8
2015-Jun-30 09:35 311 4 gusting 11 18.3
2015-Jun-30 09:25 328 4 gusting 11 17.8
2015-Jun-30 09:15 345 5 gusting 13 17.8
2015-Jun-30 09:05 316 6 gusting 11 16.7
2015-Jun-30 08:55 314 6 gusting 11 16.7
2015-Jun-30 08:45 276 5 gusting 11 16.1
2015-Jun-30 08:35 309 7 gusting 13 16.7
2015-Jun-30 08:25 315 8 gusting 11 16.1
2015-Jun-30 08:15 299 10 gusting 13 16.7
2015-Jun-30 08:05 261 6 gusting 12 16.1